Simultaneous Nadir Overpasses (SNOs) Predictions

Prediction of SNOs between GOES-17 and NOAA-20 Satellite Orbit:

Table of predicted SNOs for the next 14.0 days since TLE Epoch: 1/23/2022
Index Date Time (GOES-17) GOES-17 Lat,Lon NOAA-20 Lat,Lon Distance(km) Time Diff (sec)
1 01/23/2022 22:33:12 0.04,-137.23 0.02,-137.44 22.92 80
2 01/24/2022 22:17:09 0.04,-137.23 1.02,-132.91 493.19 80
3 01/26/2022 10:36:18 -0.04,-137.22 0.18,-138.17 108.60 80
4 01/27/2022 10:20:15 -0.03,-137.22 -0.82,-133.64 406.78 80
5 01/28/2022 22:39:33 0.03,-137.20 -0.39,-138.95 199.65 80
6 01/29/2022 22:23:30 0.02,-137.19 0.61,-134.42 315.32 80
7 01/31/2022 10:42:40 -0.01,-137.17 0.53,-139.70 287.70 80
8 02/01/2022 10:23:55 0.02,-137.16 -0.42,-135.16 227.44 80
9 02/02/2022 22:45:55 -0.01,-137.14 -0.72,-140.48 380.17 80
10 02/03/2022 22:29:51 0.00,-137.13 0.28,-135.95 134.25 80
11 02/05/2022 10:51:41 -0.00,-137.11 0.92,-141.22 469.16 80
